Year,Month,Day,Hour,Minute,Value (Times are PST for temperature in C)
2019,03,18,00,00,6.30
2019,03,18,00,01,6.30
2019,03,18,00,02,6.30
2019,03,18,00,03,6.30
2019,03,18,00,04,6.30
2019,03,18,00,05,6.30
2019,03,18,00,06,6.20
2019,03,18,00,07,6.20
2019,03,18,00,08,6.30
2019,03,18,00,09,6.30
2019,03,18,00,10,6.30
2019,03,18,00,11,6.30
2019,03,18,00,12,6.30
2019,03,18,00,13,6.30
2019,03,18,00,14,6.40
2019,03,18,00,15,6.40
2019,03,18,00,16,6.40
2019,03,18,00,17,6.40
2019,03,18,00,18,6.40
2019,03,18,00,19,6.30
2019,03,18,00,20,6.30
2019,03,18,00,21,6.20
2019,03,18,00,22,6.10
2019,03,18,00,23,6.00
2019,03,18,00,24,5.90
2019,03,18,00,25,5.80
2019,03,18,00,26,5.70
2019,03,18,00,27,5.70
2019,03,18,00,28,5.60
2019,03,18,00,29,5.50
2019,03,18,00,30,5.50
2019,03,18,00,31,5.50
2019,03,18,00,32,5.60
2019,03,18,00,33,5.50
2019,03,18,00,34,5.50
2019,03,18,00,35,5.40
2019,03,18,00,36,5.40
2019,03,18,00,37,5.40
2019,03,18,00,38,5.40
2019,03,18,00,39,5.40
2019,03,18,00,40,5.40
2019,03,18,00,41,5.40
2019,03,18,00,42,5.40
2019,03,18,00,43,5.40
2019,03,18,00,44,5.50
2019,03,18,00,45,5.60
2019,03,18,00,46,5.70
2019,03,18,00,47,5.80
2019,03,18,00,48,5.80
2019,03,18,00,49,5.80
2019,03,18,00,50,5.80
2019,03,18,00,51,5.80
2019,03,18,00,52,5.70
2019,03,18,00,53,5.80
2019,03,18,00,54,5.80
2019,03,18,00,55,5.70
2019,03,18,00,56,5.70
2019,03,18,00,57,5.60
2019,03,18,00,58,5.60
2019,03,18,00,59,5.60
2019,03,18,01,00,5.60
2019,03,18,01,01,5.60
2019,03,18,01,02,5.50
2019,03,18,01,03,5.50
2019,03,18,01,04,5.50
2019,03,18,01,05,5.50
2019,03,18,01,06,5.60
2019,03,18,01,07,5.60
2019,03,18,01,08,5.70
2019,03,18,01,09,5.70
2019,03,18,01,10,5.70
2019,03,18,01,11,5.70
2019,03,18,01,12,5.60
2019,03,18,01,13,5.50
2019,03,18,01,14,5.50
2019,03,18,01,15,5.40
2019,03,18,01,16,5.40
2019,03,18,01,17,5.40
2019,03,18,01,18,5.40
2019,03,18,01,19,5.40
2019,03,18,01,20,5.50
2019,03,18,01,21,5.50
2019,03,18,01,22,5.50
2019,03,18,01,23,5.50
2019,03,18,01,24,5.60
2019,03,18,01,25,5.60
2019,03,18,01,26,5.50
2019,03,18,01,27,5.50
2019,03,18,01,28,5.40
2019,03,18,01,29,5.30
2019,03,18,01,30,5.30
2019,03,18,01,31,5.20
2019,03,18,01,32,5.10
2019,03,18,01,33,5.10
2019,03,18,01,34,5.00
2019,03,18,01,35,5.00
2019,03,18,01,36,5.00
2019,03,18,01,37,4.90
2019,03,18,01,38,4.90
2019,03,18,01,39,4.90
2019,03,18,01,40,5.00
2019,03,18,01,41,5.00
2019,03,18,01,42,5.00
2019,03,18,01,43,4.90
2019,03,18,01,44,4.90
2019,03,18,01,45,4.90
2019,03,18,01,46,4.80
2019,03,18,01,47,4.80
2019,03,18,01,48,4.80
2019,03,18,01,49,4.70
2019,03,18,01,50,4.70
2019,03,18,01,51,4.70
2019,03,18,01,52,4.70
2019,03,18,01,53,4.70
2019,03,18,01,54,4.70
2019,03,18,01,55,4.70
2019,03,18,01,56,4.70
2019,03,18,01,57,4.70
2019,03,18,01,58,4.70
2019,03,18,01,59,4.60
2019,03,18,02,00,4.60
2019,03,18,02,01,4.70
2019,03,18,02,02,4.70
2019,03,18,02,03,4.80
2019,03,18,02,04,4.80
2019,03,18,02,05,4.80
2019,03,18,02,06,4.80
2019,03,18,02,07,4.80
2019,03,18,02,08,4.80
2019,03,18,02,09,4.80
2019,03,18,02,10,4.80
2019,03,18,02,11,4.80
2019,03,18,02,12,4.80
2019,03,18,02,13,4.80
2019,03,18,02,14,4.90
2019,03,18,02,15,5.00
2019,03,18,02,16,5.00
2019,03,18,02,17,5.10
2019,03,18,02,18,5.10
2019,03,18,02,19,5.20
2019,03,18,02,20,5.20
2019,03,18,02,21,5.30
2019,03,18,02,22,5.30
2019,03,18,02,23,5.30
2019,03,18,02,24,5.40
2019,03,18,02,25,5.40
2019,03,18,02,26,5.40
2019,03,18,02,27,5.40
2019,03,18,02,28,5.40
2019,03,18,02,29,5.30
2019,03,18,02,30,5.30
2019,03,18,02,31,5.30
2019,03,18,02,32,5.30
2019,03,18,02,33,5.30
2019,03,18,02,34,5.20
2019,03,18,02,35,5.20
2019,03,18,02,36,5.10
2019,03,18,02,37,5.10
2019,03,18,02,38,5.10
2019,03,18,02,39,5.10
2019,03,18,02,40,5.10
2019,03,18,02,41,5.10
2019,03,18,02,42,5.10
2019,03,18,02,43,5.10
2019,03,18,02,44,5.10
2019,03,18,02,45,5.20
2019,03,18,02,46,5.20
2019,03,18,02,47,5.20
2019,03,18,02,48,5.20
2019,03,18,02,49,5.10
2019,03,18,02,50,5.10
2019,03,18,02,51,5.00
2019,03,18,02,52,5.00
2019,03,18,02,53,4.90
2019,03,18,02,54,4.90
2019,03,18,02,55,4.90
2019,03,18,02,56,4.90
2019,03,18,02,57,4.90
2019,03,18,02,58,4.90
2019,03,18,02,59,4.90
2019,03,18,03,00,4.90
2019,03,18,03,01,4.90
2019,03,18,03,02,4.90
2019,03,18,03,03,5.00
2019,03,18,03,04,4.90
2019,03,18,03,05,4.90
2019,03,18,03,06,4.70
2019,03,18,03,07,4.60
2019,03,18,03,08,4.60
2019,03,18,03,09,4.50
2019,03,18,03,10,4.40
2019,03,18,03,11,4.30
2019,03,18,03,12,4.10
2019,03,18,03,13,4.00
2019,03,18,03,14,4.00
2019,03,18,03,15,4.00
2019,03,18,03,16,4.20
2019,03,18,03,17,4.30
2019,03,18,03,18,4.40
2019,03,18,03,19,4.40
2019,03,18,03,20,4.40
2019,03,18,03,21,4.40
2019,03,18,03,22,4.40
2019,03,18,03,23,4.40
2019,03,18,03,24,4.40
2019,03,18,03,25,4.30
2019,03,18,03,26,4.30
2019,03,18,03,27,4.30
2019,03,18,03,28,4.40
2019,03,18,03,29,4.40
2019,03,18,03,30,4.50
2019,03,18,03,31,4.60
2019,03,18,03,32,4.60
2019,03,18,03,33,4.70
2019,03,18,03,34,4.70
2019,03,18,03,35,4.80
2019,03,18,03,36,4.70
2019,03,18,03,37,4.70
2019,03,18,03,38,4.60
2019,03,18,03,39,4.50
2019,03,18,03,40,4.40
2019,03,18,03,41,4.30
2019,03,18,03,42,4.30
2019,03,18,03,43,4.30
2019,03,18,03,44,4.30
2019,03,18,03,45,4.30
2019,03,18,03,46,4.30
2019,03,18,03,47,4.30
2019,03,18,03,48,4.30
2019,03,18,03,49,4.30
2019,03,18,03,50,4.30
2019,03,18,03,51,4.40
2019,03,18,03,52,4.50
2019,03,18,03,53,4.50
2019,03,18,03,54,4.50
2019,03,18,03,55,4.50
2019,03,18,03,56,4.40
2019,03,18,03,57,4.40
2019,03,18,03,58,4.30
2019,03,18,03,59,4.30
2019,03,18,04,00,4.20
2019,03,18,04,01,4.20
2019,03,18,04,02,4.10
2019,03,18,04,03,4.10
2019,03,18,04,04,4.10
2019,03,18,04,05,4.00
2019,03,18,04,06,3.90
2019,03,18,04,07,3.90
2019,03,18,04,08,3.90
2019,03,18,04,09,3.90
2019,03,18,04,10,3.90
2019,03,18,04,11,3.90
2019,03,18,04,12,3.80
2019,03,18,04,13,3.70
2019,03,18,04,14,3.70
2019,03,18,04,15,3.60
2019,03,18,04,16,3.50
2019,03,18,04,17,3.40
2019,03,18,04,18,3.30
2019,03,18,04,19,3.30
2019,03,18,04,20,3.30
2019,03,18,04,21,3.30
2019,03,18,04,22,3.40
2019,03,18,04,23,3.50
2019,03,18,04,24,3.60
2019,03,18,04,25,3.60
2019,03,18,04,26,3.70
2019,03,18,04,27,3.80
2019,03,18,04,28,3.80
2019,03,18,04,29,3.90
2019,03,18,04,30,3.90
2019,03,18,04,31,4.00
2019,03,18,04,32,4.00
2019,03,18,04,33,4.00
2019,03,18,04,34,4.10
2019,03,18,04,35,4.10
2019,03,18,04,36,4.10
2019,03,18,04,37,4.20
2019,03,18,04,38,4.20
2019,03,18,04,39,4.30
2019,03,18,04,40,4.30
2019,03,18,04,41,4.30
2019,03,18,04,42,4.30
2019,03,18,04,43,4.30
2019,03,18,04,44,4.30
2019,03,18,04,45,4.20
2019,03,18,04,46,4.10
2019,03,18,04,47,4.00
2019,03,18,04,48,3.80
2019,03,18,04,49,3.70
2019,03,18,04,50,3.60
2019,03,18,04,51,3.60
2019,03,18,04,52,3.70
2019,03,18,04,53,3.70
2019,03,18,04,54,3.70
2019,03,18,04,55,3.70
2019,03,18,04,56,3.60
2019,03,18,04,57,3.50
2019,03,18,04,58,3.40
2019,03,18,04,59,3.30
2019,03,18,05,00,3.20
2019,03,18,05,01,3.10
2019,03,18,05,02,3.00
2019,03,18,05,03,3.10
2019,03,18,05,04,3.10
2019,03,18,05,05,3.20
2019,03,18,05,06,3.20
2019,03,18,05,07,3.30
2019,03,18,05,08,3.30
2019,03,18,05,09,3.40
2019,03,18,05,10,3.50
2019,03,18,05,11,3.60
2019,03,18,05,12,3.70
2019,03,18,05,13,3.80
2019,03,18,05,14,3.80
2019,03,18,05,15,3.90
2019,03,18,05,16,4.00
2019,03,18,05,17,4.00
2019,03,18,05,18,4.00
2019,03,18,05,19,4.00
2019,03,18,05,20,3.90
2019,03,18,05,21,3.90
2019,03,18,05,22,3.90
2019,03,18,05,23,3.80
2019,03,18,05,24,3.70
2019,03,18,05,25,3.50
2019,03,18,05,26,3.30
2019,03,18,05,27,3.10
2019,03,18,05,28,2.90
2019,03,18,05,29,2.80
2019,03,18,05,30,2.70
2019,03,18,05,31,2.70
2019,03,18,05,32,2.70
2019,03,18,05,33,2.70
2019,03,18,05,34,2.70
2019,03,18,05,35,2.60
2019,03,18,05,36,2.60
2019,03,18,05,37,2.50
2019,03,18,05,38,2.50
2019,03,18,05,39,2.40
2019,03,18,05,40,2.50
2019,03,18,05,41,2.50
2019,03,18,05,42,2.60
2019,03,18,05,43,2.70
2019,03,18,05,44,2.70
2019,03,18,05,45,2.70
2019,03,18,05,46,2.70
2019,03,18,05,47,2.80
2019,03,18,05,48,2.80
2019,03,18,05,49,2.80
2019,03,18,05,50,2.80
2019,03,18,05,51,2.90
2019,03,18,05,52,3.00
2019,03,18,05,53,3.00
2019,03,18,05,54,3.10
2019,03,18,05,55,3.10
2019,03,18,05,56,3.10
2019,03,18,05,57,3.10
2019,03,18,05,58,3.20
2019,03,18,05,59,3.20
2019,03,18,06,00,3.20
2019,03,18,06,01,3.20
2019,03,18,06,02,3.20
2019,03,18,06,03,3.20
2019,03,18,06,04,3.10
2019,03,18,06,05,3.10
2019,03,18,06,06,3.00
2019,03,18,06,07,2.90
2019,03,18,06,08,2.80
2019,03,18,06,09,2.70
2019,03,18,06,10,2.70
2019,03,18,06,11,2.60
2019,03,18,06,12,2.60
2019,03,18,06,13,2.70
2019,03,18,06,14,2.70
2019,03,18,06,15,2.80
2019,03,18,06,16,2.80
2019,03,18,06,17,2.80
2019,03,18,06,18,2.80
2019,03,18,06,19,2.80
2019,03,18,06,20,2.80
2019,03,18,06,21,2.80
2019,03,18,06,22,2.90
2019,03,18,06,23,2.90
2019,03,18,06,24,2.90
2019,03,18,06,25,2.90
2019,03,18,06,26,2.90
2019,03,18,06,27,2.90
2019,03,18,06,28,2.90
2019,03,18,06,29,2.90
2019,03,18,06,30,2.90
2019,03,18,06,31,2.90
2019,03,18,06,32,2.90
2019,03,18,06,33,2.90
2019,03,18,06,34,2.90
2019,03,18,06,35,2.90
2019,03,18,06,36,2.80
2019,03,18,06,37,2.80
2019,03,18,06,38,2.80
2019,03,18,06,39,2.70
2019,03,18,06,40,2.70
2019,03,18,06,41,2.80
2019,03,18,06,42,2.80
2019,03,18,06,43,2.80
2019,03,18,06,44,2.80
2019,03,18,06,45,2.90
2019,03,18,06,46,2.90
2019,03,18,06,47,2.90
2019,03,18,06,48,2.90
2019,03,18,06,49,2.90
2019,03,18,06,50,3.00
2019,03,18,06,51,3.00
2019,03,18,06,52,3.00
2019,03,18,06,53,3.00
2019,03,18,06,54,3.10
2019,03,18,06,55,3.10
2019,03,18,06,56,3.20
2019,03,18,06,57,3.20
2019,03,18,06,58,3.20
2019,03,18,06,59,3.20
2019,03,18,07,00,3.10
2019,03,18,07,01,3.10
2019,03,18,07,02,3.10
2019,03,18,07,03,3.00
2019,03,18,07,04,3.00
2019,03,18,07,05,3.00
2019,03,18,07,06,3.00
2019,03,18,07,07,3.00
2019,03,18,07,08,2.90
2019,03,18,07,09,2.90
2019,03,18,07,10,2.80
2019,03,18,07,11,2.80
2019,03,18,07,12,2.80
2019,03,18,07,13,2.80
2019,03,18,07,14,2.80
2019,03,18,07,15,2.70
2019,03,18,07,16,2.70
2019,03,18,07,17,2.70
2019,03,18,07,18,2.70
2019,03,18,07,19,2.70
2019,03,18,07,20,2.70
2019,03,18,07,21,2.70
2019,03,18,07,22,2.70
2019,03,18,07,23,2.70
2019,03,18,07,24,2.70
2019,03,18,07,25,2.60
2019,03,18,07,26,2.60
2019,03,18,07,27,2.60
2019,03,18,07,28,2.60
2019,03,18,07,29,2.70
2019,03,18,07,30,2.80
2019,03,18,07,31,2.80
2019,03,18,07,32,2.90
2019,03,18,07,33,2.90
2019,03,18,07,34,2.80
2019,03,18,07,35,2.80
2019,03,18,07,36,2.70
2019,03,18,07,37,2.70
2019,03,18,07,38,2.70
2019,03,18,07,39,2.70
2019,03,18,07,40,2.70
2019,03,18,07,41,2.80
2019,03,18,07,42,2.80
2019,03,18,07,43,2.80
2019,03,18,07,44,2.80
2019,03,18,07,45,2.90
2019,03,18,07,46,2.90
2019,03,18,07,47,3.00
2019,03,18,07,48,3.10
2019,03,18,07,49,3.10
2019,03,18,07,50,3.10
2019,03,18,07,51,3.20
2019,03,18,07,52,3.30
2019,03,18,07,53,3.40
2019,03,18,07,54,3.40
2019,03,18,07,55,3.40
2019,03,18,07,56,3.40
2019,03,18,07,57,3.30
2019,03,18,07,58,3.20
2019,03,18,07,59,3.10
2019,03,18,08,00,3.10
2019,03,18,08,01,3.10
2019,03,18,08,02,3.10
2019,03,18,08,03,3.10
2019,03,18,08,04,3.20
2019,03,18,08,05,3.10
2019,03,18,08,06,3.00
2019,03,18,08,07,3.00
2019,03,18,08,08,2.90
2019,03,18,08,09,3.00
2019,03,18,08,10,3.00
2019,03,18,08,11,3.10
2019,03,18,08,12,3.20
2019,03,18,08,13,3.20
2019,03,18,08,14,3.20
2019,03,18,08,15,3.20
2019,03,18,08,16,3.20
2019,03,18,08,17,3.20
2019,03,18,08,18,3.20
2019,03,18,08,19,3.20
2019,03,18,08,20,3.10
2019,03,18,08,21,3.10
2019,03,18,08,22,3.20
2019,03,18,08,23,3.20
2019,03,18,08,24,3.30
2019,03,18,08,25,3.30
2019,03,18,08,26,3.40
2019,03,18,08,27,3.50
2019,03,18,08,28,3.60
2019,03,18,08,29,3.70
2019,03,18,08,30,3.80
2019,03,18,08,31,3.90
2019,03,18,08,32,3.90
2019,03,18,08,33,4.00
2019,03,18,08,34,4.10
2019,03,18,08,35,4.20
2019,03,18,08,36,4.20
2019,03,18,08,37,4.30
2019,03,18,08,38,4.30
2019,03,18,08,39,4.40
2019,03,18,08,40,4.40
2019,03,18,08,41,4.50
2019,03,18,08,42,4.50
2019,03,18,08,43,4.60
2019,03,18,08,44,4.60
2019,03,18,08,45,4.70
2019,03,18,08,46,4.70
2019,03,18,08,47,4.80
2019,03,18,08,48,4.80
2019,03,18,08,49,4.90
2019,03,18,08,50,4.90
2019,03,18,08,51,5.00
2019,03,18,08,52,5.10
2019,03,18,08,53,5.10
2019,03,18,08,54,5.20
2019,03,18,08,55,5.20
2019,03,18,08,56,5.30
2019,03,18,08,57,5.40
2019,03,18,08,58,5.40
2019,03,18,08,59,5.50
2019,03,18,09,00,5.60
2019,03,18,09,01,5.60
2019,03,18,09,02,5.70
2019,03,18,09,03,5.70
2019,03,18,09,04,5.80
2019,03,18,09,05,5.80
2019,03,18,09,06,5.90
2019,03,18,09,07,5.90
2019,03,18,09,08,6.00
2019,03,18,09,09,6.00
2019,03,18,09,10,6.10
2019,03,18,09,11,6.10
2019,03,18,09,12,6.20
2019,03,18,09,13,6.20
2019,03,18,09,14,6.30
2019,03,18,09,15,6.30
2019,03,18,09,16,6.40
2019,03,18,09,17,6.50
2019,03,18,09,18,6.50
2019,03,18,09,19,6.60
2019,03,18,09,20,6.60
2019,03,18,09,21,6.60
2019,03,18,09,22,6.70
2019,03,18,09,23,6.70
2019,03,18,09,24,6.80
2019,03,18,09,25,6.80
2019,03,18,09,26,6.80
2019,03,18,09,27,6.90
2019,03,18,09,28,7.00
2019,03,18,09,29,7.00
2019,03,18,09,30,7.10
2019,03,18,09,31,7.10
2019,03,18,09,32,7.20
2019,03,18,09,33,7.20
2019,03,18,09,34,7.30
2019,03,18,09,35,7.30
2019,03,18,09,36,7.40
2019,03,18,09,37,7.40
2019,03,18,09,38,7.50
2019,03,18,09,39,7.50
2019,03,18,09,40,7.60
2019,03,18,09,41,7.60
2019,03,18,09,42,7.60
2019,03,18,09,43,7.60
2019,03,18,09,44,7.70
2019,03,18,09,45,7.70
2019,03,18,09,46,7.70
2019,03,18,09,47,7.70
2019,03,18,09,48,7.80
2019,03,18,09,49,7.80
2019,03,18,09,50,7.80
2019,03,18,09,51,7.90
2019,03,18,09,52,7.90
2019,03,18,09,53,8.00
2019,03,18,09,54,8.10
2019,03,18,09,55,8.10
2019,03,18,09,56,8.20
2019,03,18,09,57,8.20
2019,03,18,09,58,8.20
2019,03,18,09,59,8.30
2019,03,18,10,00,8.30
2019,03,18,10,01,8.40
2019,03,18,10,02,8.40
2019,03,18,10,03,8.50
2019,03,18,10,04,8.50
2019,03,18,10,05,8.50
2019,03,18,10,06,8.50
2019,03,18,10,07,8.50
2019,03,18,10,08,8.60
2019,03,18,10,09,8.60
2019,03,18,10,10,8.60
2019,03,18,10,11,8.60
2019,03,18,10,12,8.50
2019,03,18,10,13,8.50
2019,03,18,10,14,8.40
2019,03,18,10,15,8.40
2019,03,18,10,16,8.40
2019,03,18,10,17,8.40
2019,03,18,10,18,8.40
2019,03,18,10,19,8.40
2019,03,18,10,20,8.40
2019,03,18,10,21,8.40
2019,03,18,10,22,8.40
2019,03,18,10,23,8.50
2019,03,18,10,24,8.60
2019,03,18,10,25,8.70
2019,03,18,10,26,8.70
2019,03,18,10,27,8.80
2019,03,18,10,28,8.80
2019,03,18,10,29,8.80
2019,03,18,10,30,8.80
2019,03,18,10,31,8.80
2019,03,18,10,32,8.80
2019,03,18,10,33,8.80
2019,03,18,10,34,8.80
2019,03,18,10,35,8.80
2019,03,18,10,36,8.80
2019,03,18,10,37,8.70
2019,03,18,10,38,8.70
2019,03,18,10,39,8.70
2019,03,18,10,40,8.60
2019,03,18,10,41,8.70
2019,03,18,10,42,8.70
2019,03,18,10,43,8.70
2019,03,18,10,44,8.70
2019,03,18,10,45,8.70
2019,03,18,10,46,8.80
2019,03,18,10,47,8.80
2019,03,18,10,48,8.90
2019,03,18,10,49,9.10
2019,03,18,10,50,9.20
2019,03,18,10,51,9.30
2019,03,18,10,52,9.40
2019,03,18,10,53,9.50
2019,03,18,10,54,9.60
2019,03,18,10,55,9.70
2019,03,18,10,56,9.80
2019,03,18,10,57,9.80
2019,03,18,10,58,9.90
2019,03,18,10,59,10.00
2019,03,18,11,00,10.10
2019,03,18,11,01,10.20
2019,03,18,11,02,10.30
2019,03,18,11,03,10.40
2019,03,18,11,04,10.40
2019,03,18,11,05,10.50
2019,03,18,11,06,10.60
2019,03,18,11,07,10.70
2019,03,18,11,08,10.70
2019,03,18,11,09,10.80
2019,03,18,11,10,10.80
2019,03,18,11,11,10.90
2019,03,18,11,12,11.00
2019,03,18,11,13,11.00
2019,03,18,11,14,11.00
2019,03,18,11,15,11.10
2019,03,18,11,16,11.10
2019,03,18,11,17,11.20
2019,03,18,11,18,11.30
2019,03,18,11,19,11.30
2019,03,18,11,20,11.40
2019,03,18,11,21,11.50
2019,03,18,11,22,11.60
2019,03,18,11,23,11.60
2019,03,18,11,24,11.70
2019,03,18,11,25,11.80
2019,03,18,11,26,11.80
2019,03,18,11,27,11.80
2019,03,18,11,28,11.80
2019,03,18,11,29,11.70
2019,03,18,11,30,11.70
2019,03,18,11,31,11.60
2019,03,18,11,32,11.50
2019,03,18,11,33,11.50
2019,03,18,11,34,11.40
2019,03,18,11,35,11.50
2019,03,18,11,36,11.50
2019,03,18,11,37,11.50
2019,03,18,11,38,11.50
2019,03,18,11,39,11.50
2019,03,18,11,40,11.50
2019,03,18,11,41,11.50
2019,03,18,11,42,11.50
2019,03,18,11,43,11.50
2019,03,18,11,44,11.50
2019,03,18,11,45,11.50
2019,03,18,11,46,11.50
2019,03,18,11,47,11.40
2019,03,18,11,48,11.50
2019,03,18,11,49,11.40
2019,03,18,11,50,11.40
2019,03,18,11,51,11.40
2019,03,18,11,52,11.40
2019,03,18,11,53,11.40
2019,03,18,11,54,11.50
2019,03,18,11,55,11.50
2019,03,18,11,56,11.50
2019,03,18,11,57,11.60
2019,03,18,11,58,11.60
2019,03,18,11,59,11.60
2019,03,18,12,00,11.60
2019,03,18,12,01,11.70
2019,03,18,12,02,11.70
2019,03,18,12,03,11.70
2019,03,18,12,04,11.70
2019,03,18,12,05,11.80
2019,03,18,12,06,11.80
2019,03,18,12,07,11.80
2019,03,18,12,08,11.80
2019,03,18,12,09,11.80
2019,03,18,12,10,11.80
2019,03,18,12,11,11.80
2019,03,18,12,12,11.80
2019,03,18,12,13,11.80
2019,03,18,12,14,11.80
2019,03,18,12,15,11.90
2019,03,18,12,16,11.90
2019,03,18,12,17,12.00
2019,03,18,12,18,12.10
2019,03,18,12,19,12.10
2019,03,18,12,20,12.20
2019,03,18,12,21,12.20
2019,03,18,12,22,12.30
2019,03,18,12,23,12.30
2019,03,18,12,24,12.30
2019,03,18,12,25,12.30
2019,03,18,12,26,12.30
2019,03,18,12,27,12.30
2019,03,18,12,28,12.30
2019,03,18,12,29,12.40
2019,03,18,12,30,12.40
2019,03,18,12,31,12.40
2019,03,18,12,32,12.40
2019,03,18,12,33,12.30
2019,03,18,12,34,12.30
2019,03,18,12,35,12.20
2019,03,18,12,36,12.20
2019,03,18,12,37,12.20
2019,03,18,12,38,12.20
2019,03,18,12,39,12.20
2019,03,18,12,40,12.20
2019,03,18,12,41,12.20
2019,03,18,12,42,12.20
2019,03,18,12,43,12.30
2019,03,18,12,44,12.30
2019,03,18,12,45,12.40
2019,03,18,12,46,12.40
2019,03,18,12,47,12.50
2019,03,18,12,48,12.50
2019,03,18,12,49,12.50
2019,03,18,12,50,12.50
2019,03,18,12,51,12.50
2019,03,18,12,52,12.40
2019,03,18,12,53,12.30
2019,03,18,12,54,12.30
2019,03,18,12,55,12.30
2019,03,18,12,56,12.20
2019,03,18,12,57,12.20
2019,03,18,12,58,12.20
2019,03,18,12,59,12.20
2019,03,18,13,00,12.10
2019,03,18,13,01,12.10
2019,03,18,13,02,12.10
2019,03,18,13,03,12.10
2019,03,18,13,04,12.20
2019,03,18,13,05,12.20
2019,03,18,13,06,12.30
2019,03,18,13,07,12.30
2019,03,18,13,08,12.30
2019,03,18,13,09,12.30
2019,03,18,13,10,12.30
2019,03,18,13,11,12.30
2019,03,18,13,12,12.40
2019,03,18,13,13,12.40
2019,03,18,13,14,12.50
2019,03,18,13,15,12.50
2019,03,18,13,16,12.60
2019,03,18,13,17,12.60
2019,03,18,13,18,12.60
2019,03,18,13,19,12.60
2019,03,18,13,20,12.60
2019,03,18,13,21,12.60
2019,03,18,13,22,12.60
2019,03,18,13,23,12.60
2019,03,18,13,24,12.60
2019,03,18,13,25,12.60
2019,03,18,13,26,12.70
2019,03,18,13,27,12.70
2019,03,18,13,28,12.70
2019,03,18,13,29,12.70
2019,03,18,13,30,12.80
2019,03,18,13,31,12.80
2019,03,18,13,32,12.80
2019,03,18,13,33,12.80
2019,03,18,13,34,12.80
2019,03,18,13,35,12.90
2019,03,18,13,36,12.90
2019,03,18,13,37,12.90
2019,03,18,13,38,12.90
2019,03,18,13,39,12.90
2019,03,18,13,40,12.90
2019,03,18,13,41,12.90
2019,03,18,13,42,12.80
2019,03,18,13,43,12.80
2019,03,18,13,44,12.80
2019,03,18,13,45,12.70
2019,03,18,13,46,12.60
2019,03,18,13,47,12.50
2019,03,18,13,48,12.50
2019,03,18,13,49,12.40
2019,03,18,13,50,12.40
2019,03,18,13,51,12.40
2019,03,18,13,52,12.40
2019,03,18,13,53,12.30
2019,03,18,13,54,12.30
2019,03,18,13,55,12.30
2019,03,18,13,56,12.30
2019,03,18,13,57,12.30
2019,03,18,13,58,12.30
2019,03,18,13,59,12.30
2019,03,18,14,00,12.30
2019,03,18,14,01,12.30
2019,03,18,14,02,12.20
2019,03,18,14,03,12.20
2019,03,18,14,04,12.10
2019,03,18,14,05,12.10
2019,03,18,14,06,12.10
2019,03,18,14,07,12.10
2019,03,18,14,08,12.10
2019,03,18,14,09,12.10
2019,03,18,14,10,12.10
2019,03,18,14,11,12.10
2019,03,18,14,12,12.10
2019,03,18,14,13,12.10
2019,03,18,14,14,12.10
2019,03,18,14,15,12.10
2019,03,18,14,16,12.10
2019,03,18,14,17,12.10
2019,03,18,14,18,12.10
2019,03,18,14,19,12.20
2019,03,18,14,20,12.20
2019,03,18,14,21,12.30
2019,03,18,14,22,12.40
2019,03,18,14,23,12.50
2019,03,18,14,24,12.50
2019,03,18,14,25,12.60
2019,03,18,14,26,12.70
2019,03,18,14,27,12.80
2019,03,18,14,28,12.80
2019,03,18,14,29,12.90
2019,03,18,14,30,12.90
2019,03,18,14,31,13.00
2019,03,18,14,32,13.00
2019,03,18,14,33,13.10
2019,03,18,14,34,13.10
2019,03,18,14,35,13.20
2019,03,18,14,36,13.20
2019,03,18,14,37,13.20
2019,03,18,14,38,13.20
2019,03,18,14,39,13.30
2019,03,18,14,40,13.30
2019,03,18,14,41,13.30
2019,03,18,14,42,13.30
2019,03,18,14,43,13.30
2019,03,18,14,44,13.30
2019,03,18,14,45,13.40
2019,03,18,14,46,13.40
2019,03,18,14,47,13.50
2019,03,18,14,48,13.60
2019,03,18,14,49,13.60
2019,03,18,14,50,13.60
2019,03,18,14,51,13.70
2019,03,18,14,52,13.70
2019,03,18,14,53,13.80
2019,03,18,14,54,13.80
2019,03,18,14,55,13.80
2019,03,18,14,56,13.90
2019,03,18,14,57,14.10
2019,03,18,14,58,14.20
2019,03,18,14,59,14.20
2019,03,18,15,00,14.20
2019,03,18,15,01,14.20
2019,03,18,15,02,14.30
2019,03,18,15,03,14.30
2019,03,18,15,04,14.40
2019,03,18,15,05,14.40
2019,03,18,15,06,14.40
2019,03,18,15,07,14.40
2019,03,18,15,08,14.40
2019,03,18,15,09,14.40
2019,03,18,15,10,14.40
2019,03,18,15,11,14.40
2019,03,18,15,12,14.30
2019,03,18,15,13,14.30
2019,03,18,15,14,14.30
2019,03,18,15,15,14.30
2019,03,18,15,16,14.30
2019,03,18,15,17,14.30
2019,03,18,15,18,14.20
2019,03,18,15,19,14.20
2019,03,18,15,20,14.20
2019,03,18,15,21,14.20
2019,03,18,15,22,14.30
2019,03,18,15,23,14.30
2019,03,18,15,24,14.30
2019,03,18,15,25,14.30
2019,03,18,15,26,14.30
2019,03,18,15,27,14.40
2019,03,18,15,28,14.40
2019,03,18,15,29,14.50
2019,03,18,15,30,14.50
2019,03,18,15,31,14.50
2019,03,18,15,32,14.60
2019,03,18,15,33,14.60
2019,03,18,15,34,14.60
2019,03,18,15,35,14.60
2019,03,18,15,36,14.70
2019,03,18,15,37,14.70
2019,03,18,15,38,14.70
2019,03,18,15,39,14.70
2019,03,18,15,40,14.60
2019,03,18,15,41,14.60
2019,03,18,15,42,14.50
2019,03,18,15,43,14.50
2019,03,18,15,44,14.40
2019,03,18,15,45,14.30
2019,03,18,15,46,14.30
2019,03,18,15,47,14.30
2019,03,18,15,48,14.30
2019,03,18,15,49,14.30
2019,03,18,15,50,14.30
2019,03,18,15,51,14.30
2019,03,18,15,52,14.30
2019,03,18,15,53,14.30
2019,03,18,15,54,14.30
2019,03,18,15,55,14.30
2019,03,18,15,56,14.30
2019,03,18,15,57,14.20
2019,03,18,15,58,14.20
2019,03,18,15,59,14.20
2019,03,18,16,00,14.20
2019,03,18,16,01,14.20
2019,03,18,16,02,14.20
2019,03,18,16,03,14.20
2019,03,18,16,04,14.20
2019,03,18,16,05,14.20
2019,03,18,16,06,14.30
2019,03,18,16,07,14.30
2019,03,18,16,08,14.30
2019,03,18,16,09,14.40
2019,03,18,16,10,14.40
2019,03,18,16,11,14.50
2019,03,18,16,12,14.60
2019,03,18,16,13,14.70
2019,03,18,16,14,14.80
2019,03,18,16,15,14.80
2019,03,18,16,16,14.90
2019,03,18,16,17,15.00
2019,03,18,16,18,15.00
2019,03,18,16,19,15.10
2019,03,18,16,20,15.10
2019,03,18,16,21,15.10
2019,03,18,16,22,15.10
2019,03,18,16,23,15.10
2019,03,18,16,24,15.10
2019,03,18,16,25,15.10
2019,03,18,16,26,15.10
2019,03,18,16,27,15.10
2019,03,18,16,28,15.20
2019,03,18,16,29,15.20
2019,03,18,16,30,15.30
2019,03,18,16,31,15.30
2019,03,18,16,32,15.40
2019,03,18,16,33,15.40
2019,03,18,16,34,15.50
2019,03,18,16,35,15.50
2019,03,18,16,36,15.50
2019,03,18,16,37,15.50
2019,03,18,16,38,15.50
2019,03,18,16,39,15.50
2019,03,18,16,40,15.50
2019,03,18,16,41,15.40
2019,03,18,16,42,15.40
2019,03,18,16,43,15.40
2019,03,18,16,44,15.30
2019,03,18,16,45,15.20
2019,03,18,16,46,15.20
2019,03,18,16,47,15.20
2019,03,18,16,48,15.20
2019,03,18,16,49,15.20
2019,03,18,16,50,15.30
2019,03,18,16,51,15.30
2019,03,18,16,52,15.30
2019,03,18,16,53,15.20
2019,03,18,16,54,15.20
2019,03,18,16,55,15.20
2019,03,18,16,56,15.20
2019,03,18,16,57,15.30
2019,03,18,16,58,15.30
2019,03,18,16,59,15.30
2019,03,18,17,00,15.40
2019,03,18,17,01,15.40
2019,03,18,17,02,15.50
2019,03,18,17,03,15.60
2019,03,18,17,04,15.60
2019,03,18,17,05,15.70
2019,03,18,17,06,15.70
2019,03,18,17,07,15.70
2019,03,18,17,08,15.70
2019,03,18,17,09,15.70
2019,03,18,17,10,15.70
2019,03,18,17,11,15.70
2019,03,18,17,12,15.70
2019,03,18,17,13,15.70
2019,03,18,17,14,15.70
2019,03,18,17,15,15.70
2019,03,18,17,16,15.60
2019,03,18,17,17,15.60
2019,03,18,17,18,15.60
2019,03,18,17,19,15.50
2019,03,18,17,20,15.50
2019,03,18,17,21,15.50
2019,03,18,17,22,15.40
2019,03,18,17,23,15.40
2019,03,18,17,24,15.40
2019,03,18,17,25,15.40
2019,03,18,17,26,15.50
2019,03,18,17,27,15.50
2019,03,18,17,28,15.50
2019,03,18,17,29,15.50
2019,03,18,17,30,15.50
2019,03,18,17,31,15.50
2019,03,18,17,32,15.60
2019,03,18,17,33,15.60
2019,03,18,17,34,15.70
2019,03,18,17,35,15.70
2019,03,18,17,36,15.70
2019,03,18,17,37,15.70
2019,03,18,17,38,15.80
2019,03,18,17,39,15.80
2019,03,18,17,40,15.80
2019,03,18,17,41,15.90
2019,03,18,17,42,15.90
2019,03,18,17,43,16.00
2019,03,18,17,44,16.10
2019,03,18,17,45,16.20
2019,03,18,17,46,16.20
2019,03,18,17,47,16.30
2019,03,18,17,48,16.40